Terminal Aerodrome Forecast
Issued by NWS

Home | Current Version | Previous Version | Text Only | Print | Product List | Glossary On
Versions: 1 2 3 4 5 6 7 8 9 10 11 12 13 14 15 16 17 18 19 20
000
FTUS45 KVEF 280520
TAFVGT
TAF
KVGT 280520Z 2806/2906 33009KT P6SM SKC
     FM281600 VRB04KT P6SM SKC
     FM281800 13006KT P6SM SKC
     FM290500 33005KT P6SM SKC=

USA.gov is the U.S. government's official web portal to all federal, state and local government web resources and services.